Home   Weather   Oceanside   Past weeks

Flag for USA Past Weather in Oceanside, California, USA — Yesterday and Last 2 Weeks

Now
58 °F

Scattered clouds.


Feels Like: 56 °F
Forecast: 52 / 59 °F
Wind: 10 mph from West

Location: Oceanside Weather Reporting Station

Current Time: Jan 18, 2017 at 4:41:13 pm

Latest Report: Jan 18, 2017 at 3:52 pm


Visibility: 10 mi

Pressure: 30.11 "Hg

Humidity: 78%

Dew Point: 51 °F

Location of OceansideLocation

Past Weather in Oceanside — Graph

°F

Oceanside Temperature Yesterday

Maximum temperature yesterday: 65 °F (at 11:52 am)
Minimum temperature yesterday: 40 °F (at 3:52 am)
Average temperature yesterday: 51 °F

High & Low Weather Summary for the Past Weeks

 TemperatureHumidityPressure
High75 °F (Jan 8, 12:52 pm)100% (Jan 5, 3:29 am)30.21 "Hg (Jan 5, 3:29 am)
Low40 °F (Jan 17, 3:52 am)31% (Jan 17, 11:52 am)29.93 "Hg (Jan 12, 1:01 pm)
Average55 °F87%30.06 "Hg
* Reported Jan 3 2:52 pm — Jan 18 2:52 pm, Oceanside, Weather by CustomWeather, © 2017

Note: Actual official high and low records may vary slightly from our data, if they occured in-between our weather recording intervals... More about our weather records

Advertising

Oceanside Weather History for the Previous 24 Hours

Scroll right to see more
 ConditionsComfort  
Time TempWeatherWind HumidityBarometerVisibility
2:52 pm
Wed, Jan 18
59 °FSunny.8 mph75%30.09 "Hg9 mi
1:52 pm59 °FSunny.9 mph72%30.09 "Hg10 mi
12:52 pm61 °FSunny.6 mph67%30.09 "Hg10 mi
11:52 am60 °FSunny.6 mph69%30.14 "Hg10 mi
10:52 am60 °FSunny.No wind67%30.17 "Hg8 mi
10:03 am55 °FScattered clouds.3 mph67%30.19 "Hg10 mi
9:52 am54 °FPartly sunny.5 mph67%30.20 "Hg10 mi
9:10 am50 °FOvercast.No wind77%30.21 "Hg10 mi
8:52 am49 °FPartly sunny.No wind77%30.20 "Hg10 mi
8:25 am47 °FPartly sunny.3 mph83%30.20 "Hg9 mi
7:52 am45 °FOvercast.5 mph90%30.19 "Hg9 mi
7:36 am43 °FPartly sunny.No wind93%30.19 "Hg9 mi
6:52 am42 °FSunny.No wind92%30.18 "Hg9 mi
5:52 am42 °FClear.3 mph96%30.16 "Hg9 mi
4:52 am44 °FClear.3 mph93%30.15 "Hg10 mi
3:52 am45 °FPassing clouds.No wind93%30.16 "Hg8 mi
3:09 am43 °FPassing clouds.No wind100%30.16 "Hg7 mi
2:52 am44 °FFog.No wind96%30.15 "Hg6 mi
1:52 am45 °FClear.3 mph93%30.16 "Hg8 mi
1:12 am45 °FPassing clouds.No wind97%30.17 "Hg7 mi
12:29 am45 °FFog.No wind97%30.17 "Hg6 mi
11:52 pm
Tue, Jan 17
47 °FClear.No wind93%30.16 "Hg8 mi
10:52 pm46 °FFog.3 mph96%30.16 "Hg5 mi
9:52 pm48 °FClear.No wind93%30.14 "Hg7 mi
8:52 pm50 °FClear.No wind93%30.12 "Hg7 mi
7:52 pm49 °FPassing clouds.5 mph97%30.13 "Hg8 mi
6:52 pm51 °FClear.No wind89%30.10 "Hg10 mi
5:52 pm56 °FClear.No wind84%30.10 "Hg10 mi
4:52 pm59 °FSunny.3 mph78%30.08 "Hg10 mi
Weather by CustomWeather, © 2017

See weather overviewHow to use our weather pages